Weather in Temuco

Chile     38°44′00″S   72°35′41″W
temp.,
°C
wind,
m/s
gust,
m/s
humid.,
%
clouds,
%
prec.,
mm/h
press.,
hPa
HPBL,
m
26 july, mon
mon2623:00+2w23967 0.0 102771
02:00+1w11965 0.0 102925
05:00+1sw11988 0.0 103010
08:00+3sse049240 0.0 1032159
11:00+6ssw267977 0.0 1033929
14:00+8ssw3767100 0.1 10331494
17:00+7ssw266987 0.0 1033369
20:00+4sw258614 0.0 1034162
27 july, tue
tue2723:00+1sw22955 0.0 103528
02:000ssw11975 0.0 103422
05:00−1ssw129823 0.0 103332
08:00+1s179413 0.0 1033269
11:00+6s477211 0.0 1032677
14:00+9ssw35612 0.0 1029816
17:00+8sw36760 0.0 1028371
20:00+3sw22950 0.0 102935
28 july, wed
wed2823:00+1ssw11960 0.0 103017
02:000ssw11950 0.0 102912
05:00−1s11910 0.0 102810
08:00−1ssw11880 0.0 102710
11:00+8s13600 0.0 1025266
14:00+13ssw24560 0.0 1022420
17:00+11wsw22780 0.0 102026
20:00+5sw11930 0.0 102110
29 july, thu
thu2923:00+4sse11950 0.0 102110
02:00+3ese00930 0.0 102010
05:00+2ese11910 0.0 101910
08:00+1ese00890 0.0 101910
11:00+9ssw11650 0.0 1019224
14:00+13sw11560 0.0 1018380
17:00+11sw22765 0.0 101935
20:00+6w11925 0.0 102110
30 july, fri
fri3023:00+5wnw009555 0.0 102110
02:00+3w11965 0.0 102210
05:00+5sw149796 0.0 1023185
08:00+6wsw1189100 0.0 102422
11:00+8ene1183100 0.0 1026320
14:00+9s1284100 0.0 1025300
17:00+9s138618 0.0 1026226
20:00+5ssw239712 0.0 102847